Probability
0 0 0 0 0 1 4 6 7 9 14 17 15 11 8 6 6 4 3 2 2 3 3 3 3 3 3 3 2 1 0 0 0 0 0 0 0 0 0 0 0 0 0
0 0 0 0 0 2 4 6 7 8 12 17 17 14 11 9 7 5 3 2 2 2 2 2 3 2 2 2 2 1 0 0 0 0 0 0 0 0 0 0 0 0 0
0 0 0 0 0 1 3 5 6 6 8 12 13 12 11 8 6 3 2 1 1 1 1 1 1 1 1 1 1 0 0 0 0 0 0 0 0 0 0 0 0 0 0
0 0 0 0 0 0 1 3 4 5 5 7 8 8 7 6 5 4 2 1 0 0 0 0 0 0 0 0 0 0 0 0 0 0 0 0 0 0 0 0 0 0 0
0 0 0 0 0 0 0 1 3 4 5 6 7 7 6 6 6 6 4 2 0 0 0 0 0 0 0 0 0 0 0 0 0 0 0 0 0 0 0 0 0 0 0
0 0 0 0 0 0 0 0 1 2 3 4 5 5 4 4 5 5 4 2 0 0 0 0 0 0 0 0 1 0 0 0 0 0 0 0 0 0 0 0 0 0 0
0 0 0 0 0 0 0 0 0 0 1 1 1 2 2 2 2 3 2 1 0 0 0 0 0 0 0 0 0 0 0 0 0 0 0 0 0 0 0 0 0 0 0
0 0 0 0 0 0 0 0 0 0 0 0 0 0 1 1 1 1 1 0 0 0 0 0 0 0 0 0 0 0 0 0 0 0 0 0 0 0 0 0 0 0 0
0 0 0 0 0 0 0 0 0 0 0 0 0 0 0 0 0 0 0 0 0 0 0 0 0 0 0 0 0 0 0 0 0 0 0 0 0 0 0 0 0 0 0
0 0 0 0 0 0 0 0 0 0 0 0 0 0 0 0 0 0 0 0 0 0 0 0 0 0 0 0 0 0 0 0 0 0 0 0 0 0 0 0 0 0 0
0 0 0 0 0 0 0 0 0 0 0 0 0 0 0 0 0 0 0 0 0 0 0 0 0 0 0 0 0 0 0 0 0 0 0 0 0 0 0 0 0 0 0
0 0 0 0 0 0 0 0 0 0 0 0 0 0 0 0 0 0 0 0 0 0 0 0 0 0 0 0 0 0 0 0 0 0 0 0 0 0 0 0 0 0 0
0 0 0 0 0 0 0 0 0 0 0 0 0 0 0 0 0 0 0 0 0 0 0 0 0 0 0 0 0 0 0 0 0 0 0 0 0 0 0 0 0 0 0
0 0 0 0 0 0 0 0 0 0 0 0 0 0 0 0 0 0 0 0 0 0 0 0 0 0 0 0 0 0 0 0 0 0 0 0 0 0 0 0 0 0 0
0 0 0 0 0 0 0 0 0 0 0 0 0 0 0 0 0 0 0 0 0 0 0 0 0 0 0 0 0 0 0 0 0 0 0 0 0 0 0 0 0 0 0
0 0 0 0 0 0 0 0 0 0 0 0 0 0 0 0 0 0 0 0 0 0 0 0 0 0 0 0 0 0 0 0 0 0 0 0 0 0 0 0 0 0 0
0 0 0 0 0 0 0 0 0 0 0 0 0 0 0 0 0 0 0 0 0 0 0 0 0 0 0 0 0 0 0 0 0 0 0 0 0 0 0 0 0 0 0
0 0 0 0 0 0 0 0 0 0 0 0 0 0 0 0 0 0 0 0 0 0 0 0 0 0 0 0 0 0 0 0 0 0 0 0 0 0 0 0 0 0 0
0 0 0 0 0 0 0 0 0 0 0 0 0 0 0 0 0 0 0 0 0 0 0 0 0 0 0 0 0 0 0 0 0 0 0 0 0 0 0 0 0 0 0
0 0 0 0 0 0 0 0 0 0 0 0 0 0 0 0 0 0 0 0 0 0 0 0 0 0 0 0 0 0 0 0 0 0 0 0 0 0 0 0 0 0 0
0 0 0 0 0 0 0 0 0 0 0 0 0 0 0 0 0 0 0 0 0 0 0 0 0 0 0 0 0 0 0 0 0 0 0 0 0 0 0 0 0 0 0
0 0 0 0 0 0 0 0 0 0 0 0 0 0 0 0 0 0 0 0 0 0 0 0 0 0 0 0 0 0 0 0 0 0 0 0 0 0 0 0 0 0 0
0 0 0 0 0 0 0 0 0 0 0 0 0 0 0 0 0 0 0 0 0 0 0 0 0 0 0 0 0 0 0 0 0 0 0 0 0 0 0 0 0 0 0
0 0 0 0 0 0 0 0 0 0 0 0 0 0 0 0 0 0 0 0 0 0 0 0 0 0 0 0 0 0 0 0 0 0 0 0 0 0 0 0 0 0 0
0 0 0 0 0 0 0 0 0 0 0 0 0 0 0 0 0 0 0 0 0 0 0 0 0 0 0 0 0 0 0 0 0 0 0 0 0 0 0 0 0 0 0
0 0 0 0 0 0 0 0 0 0 0 0 0 0 0 0 0 0 0 0 0 0 0 0 0 0 0 0 0 0 0 0 0 0 0 0 0 0 0 0 0 0 0
Wind_Speed
7 3 3 3 3 5 6 8 8 8 7 6 5 5 5 5 4 4 4 5 5 6 6 6 7 6 6 8 8 7 8 7 5 5 7 8 10 10 8 8 8 8 8
10 6 4 4 5 5 6 7 7 7 7 5 4 3 3 3 3 2 2 2 3 4 4 6 6 6 6 8 8 8 6 5 5 5 5 6 7 7 7 6 6 7 6
13 9 6 5 5 5 6 5 5 6 6 5 4 3 3 3 3 3 2 1 2 3 4 5 5 5 6 6 8 8 9 8 7 6 6 6 6 4 3 5 5 6 5
11 9 8 8 7 6 4 5 5 5 5 5 5 6 5 4 3 2 1 1 1 2 3 4 5 5 5 6 7 7 7 8 8 6 7 8 7 5 5 4 4 5 6
13 12 11 9 8 7 6 5 6 5 4 4 4 4 4 2 2 2 2 2 1 1 2 3 4 4 4 6 7 7 7 7 8 7 6 7 7 8 7 7 6 5 4
15 13 10 9 9 8 7 7 7 6 5 4 4 3 4 3 3 3 2 2 1 1 1 3 3 4 4 5 6 6 7 7 8 7 6 6 6 5 6 7 6 5 4
11 11 11 12 11 11 9 8 8 7 6 5 4 3 3 3 3 2 2 2 2 1 2 3 3 3 4 5 5 5 5 6 6 6 5 4 4 4 4 6 6 5 4
9 10 11 12 11 11 10 9 9 7 6 5 4 3 2 1 1 1 2 2 2 2 2 3 3 3 4 4 4 3 4 3 3 3 3 2 2 2 2 3 4 4 4
7 9 10 11 11 11 11 10 9 8 6 5 4 3 2 1 1 1 1 1 1 1 2 2 2 2 3 3 3 2 2 2 2 2 2 1 2 2 2 2 2 3 4
5 7 9 11 10 10 9 9 8 7 6 5 4 2 2 1 1 1 1 0 0 0 1 1 1 2 3 3 2 2 3 3 3 3 4 4 3 3 3 2 2 1 3
4 6 8 10 10 10 9 8 8 7 6 5 4 3 3 2 2 1 1 0 0 0 1 1 2 2 3 3 3 3 3 4 5 5 5 5 5 3 3 3 2 2 1
4 7 9 10 10 10 9 8 7 7 6 5 4 3 3 3 2 2 1 1 1 2 2 2 2 3 3 3 3 4 4 5 5 5 5 5 4 5 4 3 3 2 2
5 7 9 10 10 10 9 8 7 6 6 5 4 4 4 3 3 2 2 2 2 2 2 3 3 3 3 4 4 5 5 6 6 6 6 5 5 5 4 4 3 2 2
7 9 10 10 10 9 9 8 7 7 6 6 5 4 4 3 3 3 3 3 3 3 3 4 4 4 4 4 4 5 6 6 6 6 6 6 6 5 5 4 4 3 3
9 11 11 11 10 10 9 8 8 7 7 6 5 5 4 4 4 4 3 3 3 3 3 4 4 4 4 4 4 5 5 5 6 6 6 8 8 9 7 5 5 4 3
11 12 12 12 12 12 11 10 9 8 7 7 6 6 5 5 5 4 4 4 4 4 4 4 4 4 4 6 6 5 5 5 5 5 5 5 6 8 9 10 9 7 4
11 12 13 14 13 12 12 11 10 9 8 7 7 7 6 6 5 5 5 4 4 4 4 4 5 5 6 8 7 6 5 5 4 4 3 3 4 4 4 5 6 7 8
11 11 11 12 12 11 11 10 10 10 9 8 7 7 7 6 6 6 5 5 4 4 4 4 4 4 5 7 7 7 5 4 4 3 2 2 2 3 3 3 3 3 3
10 8 9 10 10 11 12 11 11 10 9 9 8 8 7 7 7 6 6 5 5 4 4 3 3 3 3 5 6 5 3 2 2 1 1 1 1 2 1 2 2 1 1
5 4 6 8 10 11 12 12 11 11 10 9 8 8 7 7 7 7 6 5 4 4 4 3 2 1 1 3 5 4 1 1 1 1 1 1 3 3 1 2 3 3 2
1 3 6 7 9 11 12 12 11 11 9 8 8 7 7 7 7 6 5 5 5 4 4 4 3 3 3 4 4 5 2 2 2 1 1 1 3 4 3 3 3 3 4
1 3 5 6 7 10 11 11 10 9 9 9 8 8 8 7 6 7 6 6 6 5 5 5 5 5 5 5 6 7 6 4 3 2 2 2 3 4 4 3 3 3 3
1 2 4 6 7 9 10 10 9 10 10 10 9 8 8 7 7 7 8 7 6 5 5 5 5 5 5 5 8 8 7 7 4 3 4 4 4 4 4 3 4 3 3
2 3 5 6 7 8 9 8 9 10 11 10 9 9 9 8 8 6 6 6 7 6 6 6 6 5 5 5 5 5 5 6 5 4 4 6 5 5 5 4 4 4 4
3 4 5 6 7 8 8 8 9 11 11 10 9 9 8 8 8 7 7 8 8 7 7 6 5 5 5 6 8 6 5 4 4 4 4 4 4 4 4 4 4 4 4
3 4 6 6 6 8 8 9 10 11 11 9 9 8 7 7 7 7 7 11 11 12 14 11 8 6 7 6 9 11 10 9 8 6 5 5 5 5 5 4 4 4 4
Wind_Direction
230 192 180 186 190 196 198 197 195 195 194 193 199 205 212 215 216 222 234 240 244 242 241 247 254 251 251 255 256 255 258 256 256 265 270 264 257 257 256 256 261 260 258
219 198 188 186 189 188 190 191 190 186 189 194 192 198 197 210 213 202 209 235 251 255 253 253 255 253 253 256 257 255 254 254 236 247 275 279 269 241 240 249 253 263 262
225 214 207 194 187 186 184 179 176 175 179 180 172 163 170 181 189 194 199 240 274 267 260 262 263 262 258 260 261 256 252 258 250 236 249 269 274 297 237 240 252 263 268
230 221 211 204 193 180 168 166 163 160 165 177 187 194 201 208 199 197 201 226 284 290 287 279 274 269 264 264 266 263 260 260 260 248 240 252 274 277 281 250 254 268 273
230 223 213 199 181 167 163 158 152 146 149 160 171 190 200 200 179 196 215 225 219 295 311 300 287 279 275 273 273 271 264 259 261 259 251 247 249 249 261 275 275 264 265
232 225 209 184 169 163 160 157 150 138 136 141 152 173 180 188 198 214 229 236 236 256 319 315 299 292 287 284 280 275 268 263 261 260 255 253 251 248 249 263 271 274 282
239 225 201 186 176 169 163 160 154 144 140 137 137 138 157 187 210 226 239 253 256 264 318 316 306 301 296 291 286 279 276 275 271 267 265 263 267 275 268 270 277 277 279
237 222 205 192 179 171 166 162 156 147 142 138 131 126 137 172 188 231 259 267 283 302 316 312 311 311 308 302 293 285 287 291 288 291 287 280 289 289 275 271 274 274 267
236 220 200 189 177 170 168 163 155 149 145 142 140 137 140 157 172 209 248 268 288 305 310 324 328 338 338 330 315 312 325 335 349 346 343 346 5 2 346 318 281 269 272
235 208 190 180 172 166 161 159 156 150 146 147 141 139 141 139 160 196 208 272 326 314 309 6 12 18 19 12 23 34 31 54 47 38 48 47 36 35 28 18 4 315 279
223 195 180 172 165 158 159 157 155 153 154 153 150 157 150 148 162 162 146 143 112 75 60 54 52 48 45 44 61 66 65 72 67 58 60 56 47 48 39 36 37 27 318
198 183 174 168 166 165 164 162 161 162 159 156 160 160 157 168 177 162 149 147 126 90 79 80 74 65 59 59 71 77 71 73 71 65 65 58 56 56 46 42 44 36 2
184 179 178 179 176 172 171 169 168 164 161 164 170 171 174 179 179 164 151 142 125 109 96 90 85 80 77 77 78 85 83 78 73 67 65 60 58 58 51 46 40 28 18
200 193 191 189 184 180 177 175 172 168 168 172 178 181 178 174 166 155 150 138 127 117 104 95 92 90 89 87 89 92 92 85 75 67 60 54 51 51 47 43 35 24 26
219 207 200 195 189 186 183 180 175 173 174 177 181 178 169 162 159 155 146 134 124 114 109 106 102 101 94 90 100 99 98 95 86 73 63 55 49 48 47 40 29 21 19
231 218 208 200 196 192 186 181 179 175 176 180 179 170 171 168 165 158 149 139 129 117 111 109 106 98 91 99 98 105 103 95 91 82 68 61 51 48 53 51 43 34 26
238 222 211 205 200 194 186 182 177 171 177 181 176 175 177 174 168 160 155 149 136 126 119 112 107 103 101 104 101 96 96 93 84 78 70 63 56 44 45 55 53 52 48
244 229 216 206 197 185 179 174 170 173 177 180 180 179 179 174 166 163 159 150 143 138 129 122 119 114 109 110 110 106 96 94 86 74 64 59 49 41 14 28 34 37 44
253 239 218 199 183 176 171 168 171 175 179 183 182 180 178 174 171 169 162 154 149 141 137 133 129 123 120 130 134 131 126 115 110 92 41 354 9 49 357 353 342 329 54
264 228 190 175 173 170 166 170 174 178 184 184 180 177 177 176 174 169 160 156 154 151 152 144 149 165 182 166 166 168 174 164 176 191 223 323 330 343 306 302 307 316 334
300 168 165 169 168 163 166 174 177 184 180 172 169 171 175 175 169 162 159 157 160 162 173 180 196 213 224 211 204 203 222 223 231 245 256 270 313 315 312 294 298 311 308
71 149 157 156 157 165 170 176 180 174 166 166 169 172 173 170 167 166 165 171 175 182 193 206 215 218 221 229 224 224 227 234 245 254 259 268 290 302 304 293 301 289 271
179 166 162 155 163 175 180 180 174 166 165 169 175 176 175 175 176 179 180 182 189 200 205 211 220 216 211 218 228 234 233 230 240 252 263 273 278 283 278 275 285 271 263
205 182 175 176 180 185 189 183 169 168 171 177 179 179 181 182 185 189 194 196 197 204 210 213 219 217 214 214 212 218 225 232 239 244 243 254 259 264 273 269 254 253 265
212 196 199 198 193 188 192 183 174 174 179 182 182 184 188 190 193 200 206 208 214 214 211 214 215 215 219 216 210 209 213 221 229 237 240 243 246 249 248 248 251 250 248
227 211 212 211 201 194 195 189 183 183 184 187 189 190 191 194 198 202 212 224 226 228 231 234 230 230 233 219 214 219 227 231 233 236 244 248 250 254 257 257 255 251 249